Time,TemperatureF,DewpointF,PressureIn,WindDirection,WindDirectionDegrees,WindSpeedMPH,WindSpeedGustMPH,Humidity,HourlyPrecipIn,Conditions,Clouds,dailyrainin,SoftwareType,DateUTC
2013-06-14 00:02:00,65.0,57.0,29.97,NE,42,0.0,0.0,75,0.00,,,0.00,,2013-06-14 05:02:00,
2013-06-14 00:11:00,65.0,57.0,29.97,NE,42,0.0,0.0,75,0.00,,,0.00,,2013-06-14 05:11:00,
2013-06-14 00:22:00,64.0,57.0,29.97,NE,42,0.0,0.0,77,0.00,,,0.00,,2013-06-14 05:22:00,
2013-06-14 00:34:00,64.0,57.0,29.97,NE,42,0.0,0.0,77,0.00,,,0.00,,2013-06-14 05:34:00,
2013-06-14 00:43:00,64.0,57.0,29.97,NE,42,0.0,0.0,77,0.00,,,0.00,,2013-06-14 05:43:00,
2013-06-14 00:52:00,63.0,56.0,29.97,NE,42,0.0,0.0,78,0.00,,,0.00,,2013-06-14 05:52:00,
2013-06-14 01:02:00,63.0,56.0,29.97,NE,42,0.0,0.0,78,0.00,,,0.00,,2013-06-14 06:02:00,
2013-06-14 01:12:00,63.0,56.0,29.97,NE,42,0.0,0.0,78,0.00,,,0.00,,2013-06-14 06:12:00,
2013-06-14 01:22:00,63.0,56.0,29.97,NE,42,0.0,0.0,77,0.00,,,0.00,,2013-06-14 06:22:00,
2013-06-14 01:33:00,63.0,56.0,29.98,NE,42,0.0,0.0,77,0.00,,,0.00,,2013-06-14 06:33:00,
2013-06-14 01:43:00,63.0,56.0,29.98,NE,42,0.0,0.0,77,0.00,,,0.00,,2013-06-14 06:43:00,
2013-06-14 01:52:00,63.0,56.0,29.98,NE,42,0.0,0.0,77,0.00,,,0.00,,2013-06-14 06:52:00,
2013-06-14 02:02:00,63.0,55.0,29.98,NE,42,0.0,0.0,76,0.00,,,0.00,,2013-06-14 07:02:00,
2013-06-14 02:12:00,63.0,55.0,29.98,NE,42,0.0,0.0,76,0.00,,,0.00,,2013-06-14 07:12:00,
2013-06-14 02:22:00,63.0,55.0,29.99,NE,45,0.0,0.0,76,0.00,,,0.00,,2013-06-14 07:22:00,
2013-06-14 02:33:00,63.0,55.0,29.99,NE,45,0.0,0.0,75,0.00,,,0.00,,2013-06-14 07:33:00,
2013-06-14 02:43:00,63.0,55.0,29.99,NE,45,0.0,0.0,75,0.00,,,0.00,,2013-06-14 07:43:00,
2013-06-14 02:53:00,63.0,56.0,30.00,NE,45,0.0,0.0,77,0.00,,,0.00,,2013-06-14 07:53:00,
2013-06-14 03:02:00,62.0,55.0,30.00,NE,45,0.0,0.0,77,0.00,,,0.00,,2013-06-14 08:02:00,
2013-06-14 03:12:00,62.0,55.0,30.00,NE,45,0.0,0.0,77,0.00,,,0.00,,2013-06-14 08:12:00,
2013-06-14 03:23:00,62.0,55.0,30.01,NE,45,0.0,0.0,78,0.00,,,0.00,,2013-06-14 08:23:00,
2013-06-14 03:33:00,62.0,56.0,30.01,NE,45,0.0,0.0,80,0.00,,,0.00,,2013-06-14 08:33:00,
2013-06-14 03:43:00,62.0,56.0,30.01,NE,45,0.0,0.0,80,0.00,,,0.00,,2013-06-14 08:43:00,
2013-06-14 03:53:00,62.0,56.0,30.02,NE,45,0.0,0.0,81,0.00,,,0.00,,2013-06-14 08:53:00,
2013-06-14 04:02:00,61.0,55.0,30.02,NE,45,0.0,0.0,81,0.00,,,0.00,,2013-06-14 09:02:00,
2013-06-14 04:12:00,61.0,55.0,30.02,NE,45,0.0,0.0,81,0.00,,,0.00,,2013-06-14 09:12:00,
2013-06-14 04:22:00,61.0,55.0,30.03,NE,40,0.0,0.0,82,0.00,,,0.00,,2013-06-14 09:22:00,
2013-06-14 04:33:00,61.0,56.0,30.03,NW,310,0.0,0.0,83,0.00,,,0.00,,2013-06-14 09:33:00,
2013-06-14 04:43:00,61.0,56.0,30.03,NW,310,0.0,0.0,83,0.00,,,0.00,,2013-06-14 09:43:00,
2013-06-14 04:53:00,60.0,55.0,30.03,NW,310,0.0,0.0,85,0.00,,,0.00,,2013-06-14 09:53:00,
2013-06-14 05:01:00,59.0,55.0,30.03,NW,310,0.0,0.0,86,0.00,,,0.00,,2013-06-14 10:01:00,
2013-06-14 05:11:00,59.0,55.0,30.03,NW,310,0.0,0.0,86,0.00,,,0.00,,2013-06-14 10:11:00,
2013-06-14 05:22:00,60.0,56.0,30.03,NW,306,0.0,2.0,86,0.00,,,0.00,,2013-06-14 10:22:00,
2013-06-14 05:34:00,60.0,55.0,30.02,NW,306,0.0,0.0,85,0.00,,,0.00,,2013-06-14 10:34:00,
2013-06-14 05:43:00,60.0,55.0,30.02,NW,306,0.0,0.0,85,0.00,,,0.00,,2013-06-14 10:43:00,
2013-06-14 05:53:00,60.0,56.0,30.03,NW,306,0.0,0.0,86,0.00,,,0.00,,2013-06-14 10:53:00,
2013-06-14 06:02:00,60.0,56.0,30.03,WNW,298,0.0,2.0,86,0.00,,,0.00,,2013-06-14 11:02:00,
2013-06-14 06:11:00,60.0,56.0,30.03,WNW,298,0.0,2.0,86,0.00,,,0.00,,2013-06-14 11:11:00,
2013-06-14 06:23:00,60.0,56.0,30.04,NW,322,1.0,3.0,86,0.00,,,0.00,,2013-06-14 11:23:00,
2013-06-14 06:32:00,61.0,57.0,30.05,NW,314,0.0,4.0,86,0.00,,,0.00,,2013-06-14 11:32:00,
2013-06-14 06:43:00,61.0,57.0,30.05,NW,314,0.0,4.0,86,0.00,,,0.00,,2013-06-14 11:43:00,
2013-06-14 06:52:00,61.0,57.0,30.06,NW,316,0.0,1.0,86,0.00,,,0.00,,2013-06-14 11:52:00,
2013-06-14 07:02:00,62.0,57.0,30.05,NW,324,0.0,0.0,85,0.00,,,0.00,,2013-06-14 12:02:00,
2013-06-14 07:12:00,62.0,57.0,30.05,NW,324,0.0,0.0,85,0.00,,,0.00,,2013-06-14 12:12:00,
2013-06-14 07:22:00,63.0,57.0,30.06,NNW,341,0.0,4.0,82,0.00,,,0.00,,2013-06-14 12:22:00,
2013-06-14 07:33:00,64.0,58.0,30.06,NW,316,2.0,6.0,80,0.00,,,0.00,,2013-06-14 12:33:00,
2013-06-14 07:43:00,64.0,58.0,30.06,NW,316,2.0,6.0,80,0.00,,,0.00,,2013-06-14 12:43:00,
2013-06-14 07:52:00,64.0,58.0,30.06,NNW,343,0.0,4.0,80,0.00,,,0.00,,2013-06-14 12:52:00,
2013-06-14 08:02:00,65.0,58.0,30.06,NW,307,0.0,4.0,78,0.00,,,0.00,,2013-06-14 13:02:00,
2013-06-14 08:11:00,65.0,58.0,30.06,NW,307,0.0,4.0,78,0.00,,,0.00,,2013-06-14 13:11:00,
2013-06-14 08:22:00,66.0,56.0,30.06,NNW,336,1.0,5.0,71,0.00,,,0.00,,2013-06-14 13:22:00,
2013-06-14 08:33:00,67.0,57.0,30.07,North,355,0.0,6.0,70,0.00,,,0.00,,2013-06-14 13:33:00,
2013-06-14 08:43:00,67.0,57.0,30.07,North,355,0.0,6.0,70,0.00,,,0.00,,2013-06-14 13:43:00,
2013-06-14 08:53:00,68.0,58.0,30.08,North,355,0.0,3.0,71,0.00,,,0.00,,2013-06-14 13:53:00,
2013-06-14 09:02:00,68.0,58.0,30.09,NNW,348,2.0,6.0,70,0.00,,,0.00,,2013-06-14 14:02:00,
2013-06-14 09:11:00,68.0,58.0,30.09,NNW,348,2.0,6.0,70,0.00,,,0.00,,2013-06-14 14:11:00,
2013-06-14 09:22:00,68.0,57.0,30.09,NW,313,0.0,7.0,69,0.00,,,0.00,,2013-06-14 14:22:00,
2013-06-14 09:34:00,69.0,58.0,30.09,North,5,0.0,6.0,68,0.00,,,0.00,,2013-06-14 14:34:00,
2013-06-14 09:43:00,69.0,58.0,30.09,North,5,0.0,6.0,68,0.00,,,0.00,,2013-06-14 14:43:00,
2013-06-14 09:52:00,69.0,58.0,30.09,NW,309,3.0,8.0,68,0.00,,,0.00,,2013-06-14 14:52:00,
2013-06-14 10:01:00,70.0,59.0,30.09,NW,326,1.0,7.0,67,0.00,,,0.00,,2013-06-14 15:01:00,
2013-06-14 10:11:00,70.0,59.0,30.09,NW,326,1.0,7.0,67,0.00,,,0.00,,2013-06-14 15:11:00,
2013-06-14 10:23:00,71.0,58.0,30.09,NW,321,0.0,6.0,64,0.00,,,0.00,,2013-06-14 15:23:00,
2013-06-14 10:33:00,72.0,58.0,30.09,North,355,5.0,9.0,62,0.00,,,0.00,,2013-06-14 15:33:00,
2013-06-14 10:44:00,72.0,58.0,30.09,North,355,5.0,9.0,62,0.00,,,0.00,,2013-06-14 15:44:00,
2013-06-14 10:53:00,73.0,58.0,30.09,North,5,0.0,9.0,60,0.00,,,0.00,,2013-06-14 15:53:00,
2013-06-14 11:01:00,73.0,57.0,30.09,NNE,12,3.0,10.0,57,0.00,,,0.00,,2013-06-14 16:01:00,
2013-06-14 11:11:00,73.0,57.0,30.09,NNE,12,3.0,10.0,57,0.00,,,0.00,,2013-06-14 16:11:00,
2013-06-14 11:22:00,74.0,59.0,30.09,North,9,1.0,7.0,60,0.00,,,0.00,,2013-06-14 16:22:00,
2013-06-14 11:33:00,74.0,58.0,30.08,North,5,0.0,1.0,57,0.00,,,0.00,,2013-06-14 16:33:00,
2013-06-14 11:43:00,74.0,58.0,30.08,North,5,0.0,1.0,57,0.00,,,0.00,,2013-06-14 16:43:00,
2013-06-14 11:53:00,75.0,58.0,30.08,North,360,0.0,5.0,56,0.00,,,0.00,,2013-06-14 16:53:00,
2013-06-14 12:02:00,76.0,57.0,30.07,NNE,33,0.0,7.0,52,0.00,,,0.00,,2013-06-14 17:02:00,
2013-06-14 12:11:00,76.0,57.0,30.07,NNE,33,0.0,7.0,52,0.00,,,0.00,,2013-06-14 17:11:00,
2013-06-14 12:22:00,76.0,58.0,30.07,ENE,60,0.0,0.0,54,0.00,,,0.00,,2013-06-14 17:22:00,
2013-06-14 12:34:00,76.0,57.0,30.07,NW,308,1.0,6.0,52,0.00,,,0.00,,2013-06-14 17:34:00,
2013-06-14 12:43:00,76.0,57.0,30.07,NW,308,1.0,6.0,52,0.00,,,0.00,,2013-06-14 17:43:00,
2013-06-14 12:53:00,76.0,57.0,30.06,NNW,347,0.0,9.0,51,0.00,,,0.00,,2013-06-14 17:53:00,
2013-06-14 13:02:00,77.0,57.0,30.06,NNE,16,0.0,7.0,50,0.00,,,0.00,,2013-06-14 18:02:00,
2013-06-14 13:11:00,77.0,57.0,30.06,NNE,16,0.0,7.0,50,0.00,,,0.00,,2013-06-14 18:11:00,
2013-06-14 13:22:00,77.0,58.0,30.06,North,351,2.0,11.0,52,0.00,,,0.00,,2013-06-14 18:22:00,
2013-06-14 13:32:00,77.0,56.0,30.06,NNW,340,6.0,11.0,48,0.00,,,0.00,,2013-06-14 18:32:00,
2013-06-14 13:43:00,77.0,56.0,30.06,NNW,340,6.0,11.0,48,0.00,,,0.00,,2013-06-14 18:43:00,
2013-06-14 13:52:00,77.0,56.0,30.06,NNW,346,4.0,10.0,49,0.00,,,0.00,,2013-06-14 18:52:00,
2013-06-14 14:01:00,78.0,58.0,30.06,NNE,22,3.0,7.0,51,0.00,,,0.00,,2013-06-14 19:01:00,
2013-06-14 14:11:00,78.0,58.0,30.06,NNE,22,3.0,7.0,51,0.00,,,0.00,,2013-06-14 19:11:00,
2013-06-14 14:22:00,79.0,60.0,30.05,NNE,28,0.0,6.0,52,0.00,,,0.00,,2013-06-14 19:22:00,
2013-06-14 14:32:00,80.0,57.0,30.05,NW,305,0.0,6.0,46,0.00,,,0.00,,2013-06-14 19:32:00,
2013-06-14 14:43:00,80.0,57.0,30.05,NW,305,0.0,6.0,46,0.00,,,0.00,,2013-06-14 19:43:00,
2013-06-14 14:53:00,79.0,57.0,30.05,ENE,78,0.0,7.0,47,0.00,,,0.00,,2013-06-14 19:53:00,
2013-06-14 15:02:00,79.0,58.0,30.04,West,277,0.0,7.0,48,0.00,,,0.00,,2013-06-14 20:02:00,
2013-06-14 15:11:00,79.0,58.0,30.04,West,277,0.0,7.0,48,0.00,,,0.00,,2013-06-14 20:11:00,
2013-06-14 15:22:00,79.0,58.0,30.04,WNW,300,2.0,6.0,48,0.00,,,0.00,,2013-06-14 20:22:00,
2013-06-14 15:33:00,79.0,57.0,30.05,NNW,331,1.0,7.0,47,0.00,,,0.00,,2013-06-14 20:33:00,
2013-06-14 15:43:00,79.0,57.0,30.05,NNW,331,1.0,7.0,47,0.00,,,0.00,,2013-06-14 20:43:00,
2013-06-14 15:53:00,80.0,58.0,30.06,NNW,347,1.0,6.0,47,0.00,,,0.00,,2013-06-14 20:53:00,
2013-06-14 16:02:00,80.0,58.0,30.06,NNW,333,5.0,10.0,47,0.00,,,0.00,,2013-06-14 21:02:00,
2013-06-14 16:11:00,80.0,58.0,30.06,NNW,333,5.0,10.0,47,0.00,,,0.00,,2013-06-14 21:11:00,
2013-06-14 16:22:00,80.0,58.0,30.05,ENE,74,2.0,9.0,47,0.00,,,0.00,,2013-06-14 21:22:00,
2013-06-14 16:34:00,81.0,58.0,30.05,NNW,339,0.0,5.0,46,0.00,,,0.00,,2013-06-14 21:34:00,
2013-06-14 16:42:00,81.0,58.0,30.05,NNW,339,0.0,5.0,46,0.00,,,0.00,,2013-06-14 21:42:00,
2013-06-14 16:52:00,81.0,59.0,30.05,NE,50,0.0,6.0,48,0.00,,,0.00,,2013-06-14 21:52:00,
2013-06-14 17:01:00,80.0,58.0,30.04,North,355,0.0,1.0,47,0.00,,,0.00,,2013-06-14 22:01:00,
2013-06-14 17:11:00,80.0,58.0,30.04,North,355,0.0,1.0,47,0.00,,,0.00,,2013-06-14 22:11:00,
2013-06-14 17:22:00,79.0,58.0,30.04,NNW,347,0.0,0.0,49,0.00,,,0.00,,2013-06-14 22:22:00,
2013-06-14 17:33:00,78.0,58.0,30.03,North,355,0.0,5.0,50,0.00,,,0.00,,2013-06-14 22:33:00,
2013-06-14 17:43:00,78.0,58.0,30.03,North,355,0.0,5.0,50,0.00,,,0.00,,2013-06-14 22:43:00,
2013-06-14 17:53:00,79.0,59.0,30.03,WNW,292,0.0,5.0,50,0.00,,,0.00,,2013-06-14 22:53:00,
2013-06-14 18:01:00,79.0,59.0,30.03,NNW,329,0.0,5.0,50,0.00,,,0.00,,2013-06-14 23:01:00,
2013-06-14 18:11:00,79.0,59.0,30.03,NNW,329,0.0,5.0,50,0.00,,,0.00,,2013-06-14 23:11:00,
2013-06-14 18:22:00,79.0,58.0,30.02,NNW,348,0.0,3.0,49,0.00,,,0.00,,2013-06-14 23:22:00,
2013-06-14 18:33:00,78.0,59.0,30.02,ENE,68,0.0,0.0,53,0.00,,,0.00,,2013-06-14 23:33:00,
2013-06-14 18:43:00,78.0,59.0,30.02,ENE,68,0.0,0.0,53,0.00,,,0.00,,2013-06-14 23:43:00,
2013-06-14 18:52:00,78.0,63.0,30.01,ESE,102,0.0,0.0,60,0.00,,,0.00,,2013-06-14 23:52:00,
2013-06-14 19:01:00,79.0,61.0,30.00,ENE,67,0.0,0.0,54,0.00,,,0.00,,2013-06-15 00:01:00,
2013-06-14 19:11:00,79.0,61.0,30.00,ENE,67,0.0,0.0,54,0.00,,,0.00,,2013-06-15 00:11:00,
2013-06-14 19:23:00,80.0,61.0,29.99,ENE,68,0.0,0.0,53,0.00,,,0.00,,2013-06-15 00:23:00,
2013-06-14 19:34:00,78.0,61.0,29.98,East,98,0.0,0.0,55,0.00,,,0.00,,2013-06-15 00:34:00,
2013-06-14 19:43:00,78.0,61.0,29.98,East,98,0.0,0.0,55,0.00,,,0.00,,2013-06-15 00:43:00,
2013-06-14 19:53:00,77.0,61.0,29.97,ESE,105,0.0,0.0,58,0.00,,,0.00,,2013-06-15 00:53:00,
2013-06-14 20:01:00,75.0,61.0,29.99,South,190,0.0,0.0,61,0.00,,,0.00,,2013-06-15 01:01:00,
2013-06-14 20:11:00,75.0,61.0,29.99,South,190,0.0,0.0,61,0.00,,,0.00,,2013-06-15 01:11:00,
2013-06-14 20:22:00,73.0,61.0,30.00,SSW,199,0.0,1.0,66,0.00,,,0.00,,2013-06-15 01:22:00,
2013-06-14 20:33:00,73.0,61.0,30.00,SSW,199,0.0,1.0,66,0.00,,,0.00,,2013-06-15 01:33:00,
2013-06-14 20:43:00,72.0,62.0,30.01,SSW,199,0.0,0.0,70,0.00,,,0.00,,2013-06-15 01:43:00,
2013-06-14 20:54:00,72.0,62.0,30.01,SSW,199,0.0,0.0,70,0.00,,,0.00,,2013-06-15 01:54:00,
2013-06-14 21:02:00,71.0,61.0,30.01,SSW,199,0.0,0.0,71,0.00,,,0.00,,2013-06-15 02:02:00,
2013-06-14 21:11:00,70.0,62.0,30.01,SSW,199,0.0,0.0,75,0.00,,,0.00,,2013-06-15 02:11:00,
2013-06-14 21:23:00,70.0,62.0,30.01,SSW,199,0.0,0.0,75,0.00,,,0.00,,2013-06-15 02:23:00,
2013-06-14 21:33:00,69.0,62.0,30.02,SSW,199,0.0,0.0,78,0.00,,,0.00,,2013-06-15 02:33:00,
2013-06-14 21:43:00,68.0,62.0,30.03,SSW,199,0.0,0.0,80,0.00,,,0.00,,2013-06-15 02:43:00,
2013-06-14 21:53:00,68.0,62.0,30.02,SSW,199,0.0,0.0,80,0.00,,,0.00,,2013-06-15 02:53:00,
2013-06-14 22:01:00,67.0,61.0,30.03,SSW,199,0.0,0.0,82,0.00,,,0.00,,2013-06-15 03:01:00,
2013-06-14 22:11:00,67.0,61.0,30.03,SSW,199,0.0,0.0,82,0.00,,,0.00,,2013-06-15 03:11:00,
2013-06-14 22:23:00,67.0,62.0,30.03,SSW,199,0.0,0.0,83,0.00,,,0.00,,2013-06-15 03:23:00,
2013-06-14 22:32:00,66.0,61.0,30.03,SSW,199,0.0,0.0,83,0.00,,,0.00,,2013-06-15 03:32:00,
2013-06-14 22:44:00,66.0,61.0,30.03,SSW,199,0.0,0.0,83,0.00,,,0.00,,2013-06-15 03:44:00,
2013-06-14 22:53:00,66.0,61.0,30.04,SSW,199,0.0,0.0,85,0.00,,,0.00,,2013-06-15 03:53:00,
2013-06-14 23:02:00,66.0,61.0,30.04,SSW,199,0.0,0.0,84,0.00,,,0.00,,2013-06-15 04:02:00,
2013-06-14 23:12:00,66.0,61.0,30.04,SSW,199,0.0,0.0,84,0.00,,,0.00,,2013-06-15 04:12:00,
2013-06-14 23:22:00,65.0,61.0,30.03,SSW,199,0.0,0.0,87,0.00,,,0.00,,2013-06-15 04:22:00,
2013-06-14 23:34:00,65.0,61.0,30.04,SSW,199,0.0,0.0,88,0.00,,,0.00,,2013-06-15 04:34:00,
2013-06-14 23:43:00,65.0,61.0,30.04,SSW,199,0.0,0.0,88,0.00,,,0.00,,2013-06-15 04:43:00,
2013-06-14 23:54:00,64.0,60.0,30.05,SSW,199,0.0,0.0,87,0.00,,,0.00,,2013-06-15 04:54:00,